{"data":{"norad_id":64167,"epoch":"2026-09-20T20:32:57.535008Z","epoch_age_seconds":109573,"freshness":"FRESH","line1":"1 64167U 25112X   26263.85622147  .00023187  00000+0  71784-3 0  9999","line2":"2 64167  97.2844 310.9422 0000483 173.8108 186.3141 15.33468369 72803","mean_motion":15.33468369,"eccentricity":4.83e-5,"inclination_deg":97.2844,"raan_deg":310.9422,"arg_perigee_deg":173.8108,"mean_anomaly_deg":186.3141,"bstar":0.00071784,"rev_number":7280,"period_min":93.904773591062,"perigee_km":465.14309926443,"apogee_km":465.8041920528,"semimajor_km":6843.6106456586,"source":"CELESTRAK","updated_at":"2026-09-21T09:00:35.241966Z"}}